Content
SEND FEEDBACK

Daily
Averages
Monthly
Summary
United States of America

ACHANG BAY, GUAM


Home > North America > United States > Guam
Elevation: 10 meters     Latitude: 13 16N     Longitude: 144 45E

WEATHER
 
SELECT A DAY
Number of Records: 356,396;   Date Range: 1/1/95 - 12/17/14
 
SHARE

PRINT THIS DATA

[ ← Previous Day ]
WEATHER ALMANAC - 25 MARCH, 2013
[ Next Day → ]
[ °F ]   °C
Weather ElementAverageHighLow
Temperature26.3 °C29.2 °C (12:55 pm)25 °C (2:08 am)
Dewpoint21.7 °C23 °C (3:11 am)19.2 °C (7:55 am)
Humidity75.8 %89 % (3:25 am)61 % (9:55 am)
Barometer1010.5 hPa1012.5 hPa (10:37 pm)1008.5 hPa (2:55 pm)
Wind Speed25.3 km/h37 km/h (7:55 am)
Wind Gust50.1 km/h (7:09 am)
Weather ElementAverage
Visibility16.1 km
Wind DirectionENE (72.9 °)

Weather ElementTotal
Precipitation---
Cooling Degree Days8.8 (Base 18.3)
Growing Degree Days17.1 (Base 10)
Averaged from 56 records on 25 March, 2013
WEATHER CONDITIONS BREAKOUT
WIND DIRECTION BREAKOUT
WEATHER BY HOUR - 25 MARCH, 2013
[ °F ]   °C
Local TimeTemperatureDewpointHumidityBarometerVisibilityWind DirectionWind SpeedGust SpeedPrecipitationEventsConditions
1:55 AM25.4 °C22.4 °C83 %1010.2 hPa16.1 kmENE (70°)29.6 km/hPartly Cloudy
2:08 AM25 °C22 °C83 %1009.8 hPa16.1 kmENE (70°)24.1 km/hMostly Cloudy
2:55 AM25.5 °C22.7 °C84 %1009.5 hPa16.1 kmENE (70°)22.2 km/hMostly Cloudy
3:11 AM26 °C23 °C83 %1009.5 hPa16.1 kmEast (80°)27.8 km/hMostly Cloudy
3:18 AM26 °C23 °C83 %1009.5 hPa16.1 kmEast (80°)25.9 km/hMostly Cloudy
3:25 AM25 °C23 °C89 %1009.5 hPa16.1 kmENE (70°)22.2 km/hMostly Cloudy
3:33 AM25 °C23 °C89 %1009.5 hPa16.1 kmENE (60°)20.4 km/hMostly Cloudy
3:37 AM25 °C23 °C89 %1009.5 hPa16.1 kmENE (70°)27.8 km/hScattered Clouds
3:55 AM25.2 °C22.2 °C83 %1009.5 hPa16.1 kmENE (70°)29.6 km/hPartly Cloudy
4:55 AM25.2 °C21.8 °C81 %1009.5 hPa16.1 kmENE (70°)29.6 km/hPartly Cloudy
5:55 AM25.3 °C22 °C82 %1009.8 hPa16.1 kmENE (60°)31.5 km/hScattered Clouds
6:46 AM25 °C21 °C78 %1010.2 hPa16.1 kmEast (80°)33.3 km/h42.6 km/hMostly Cloudy
6:51 AM25 °C22 °C83 %1010.5 hPa14.5 kmEast (80°)29.6 km/hRainLight Rain
6:55 AM25.3 °C21.3 °C78 %1010.5 hPa14.5 kmEast (90°)31.5 km/h40.7 km/hLight Drizzle
7:01 AM25 °C20 °C74 %1010.5 hPa16.1 kmEast (80°)35.2 km/h42.6 km/hMostly Cloudy
7:09 AM26 °C21 °C74 %1010.8 hPa16.1 kmEast (80°)31.5 km/h50.1 km/hMostly Cloudy
7:55 AM26.5 °C19.2 °C64 %1011.2 hPa16.1 kmEast (80°)37 km/h42.6 km/h0 mmOvercast
8:55 AM27.9 °C19.9 °C62 %1011.5 hPa16.1 kmEast (90°)25.9 km/h37 km/hClear
9:55 AM28.4 °C20.1 °C61 %1011.5 hPa16.1 kmEast (90°)31.5 km/hClear
10:55 AM28.8 °C21.1 °C63 %1011.2 hPa16.1 kmEast (80°)27.8 km/h40.7 km/hPartly Cloudy
11:55 AM29.1 °C21.4 °C63 %1010.5 hPa16.1 kmENE (70°)27.8 km/hClear
12:55 PM29.2 °C21.4 °C63 %1009.5 hPa16.1 kmENE (70°)27.8 km/h35.2 km/hClear
1:55 PM29 °C21.4 °C63 %1008.8 hPa16.1 kmEast (80°)29.6 km/hClear
2:55 PM28.8 °C21.8 °C66 %1008.5 hPa16.1 kmENE (60°)24.1 km/hPartly Cloudy
3:55 PM28.1 °C21.8 °C68 %1008.5 hPa16.1 kmEast (80°)25.9 km/hPartly Cloudy
4:42 PM27 °C22 °C74 %1008.8 hPa16.1 kmENE (70°)24.1 km/hRainLight Rain
4:45 PM27 °C22 °C74 %1008.8 hPa16.1 kmENE (70°)25.9 km/hRainLight Rain
4:49 PM27 °C22 °C74 %1008.8 hPa16.1 kmENE (70°)25.9 km/hRainLight Rain
4:51 PM27 °C21 °C70 %1008.8 hPa16.1 kmENE (70°)25.9 km/hMostly Cloudy
4:55 PM26.6 °C21.3 °C73 %1008.8 hPa16.1 kmEast (80°)29.6 km/h0 mmMostly Cloudy
5:03 PM27 °C22 °C74 %1008.8 hPa16.1 kmENE (70°)24.1 km/hMostly Cloudy
5:09 PM27 °C22 °C74 %1008.8 hPa16.1 kmENE (60°)22.2 km/hMostly Cloudy
5:27 PM27 °C21 °C70 %1008.8 hPa16.1 kmENE (70°)25.9 km/hMostly Cloudy
5:29 PM27 °C21 °C70 %1009.1 hPa16.1 kmEast (80°)25.9 km/hMostly Cloudy
5:31 PM27 °C21 °C70 %1009.1 hPa16.1 kmEast (80°)27.8 km/hMostly Cloudy
5:55 PM26.5 °C21.1 °C72 %1009.5 hPa16.1 kmEast (90°)22.2 km/hPartly Cloudy
6:55 PM26 °C21.5 °C76 %1009.8 hPa16.1 kmENE (70°)24.1 km/hScattered Clouds
7:55 PM25.9 °C21.3 °C76 %1010.8 hPa16.1 kmENE (70°)20.4 km/hScattered Clouds
8:22 PM26 °C22 °C78 %1011.2 hPa16.1 kmENE (70°)25.9 km/hMostly Cloudy
8:49 PM26 °C22 °C78 %1011.5 hPa16.1 kmENE (70°)20.4 km/h38.9 km/hScattered Clouds
8:55 PM25.9 °C21.4 °C76 %1011.5 hPa16.1 kmENE (70°)24.1 km/h38.9 km/hPartly Cloudy
9:22 PM26 °C22 °C78 %1011.9 hPa16.1 kmENE (60°)20.4 km/hMostly Cloudy
9:28 PM26 °C22 °C78 %1011.9 hPa16.1 kmENE (60°)22.2 km/hScattered Clouds
9:33 PM26 °C22 °C78 %1011.9 hPa16.1 kmENE (60°)20.4 km/hMostly Cloudy
9:48 PM26 °C22 °C78 %1011.9 hPa16.1 kmENE (70°)25.9 km/hScattered Clouds
9:55 PM25.7 °C21.5 °C77 %1011.9 hPa16.1 kmENE (70°)22.2 km/hScattered Clouds
10:37 PM26 °C22 °C78 %1012.5 hPa16.1 kmEast (80°)24.1 km/hMostly Cloudy
10:39 PM26 °C22 °C78 %1012.5 hPa16.1 kmEast (80°)24.1 km/hScattered Clouds
10:55 PM25.5 °C22 °C81 %1012.2 hPa16.1 kmENE (70°)20.4 km/hScattered Clouds
11:10 PM26 °C22 °C78 %1012.2 hPa16.1 kmEast (80°)18.5 km/hMostly Cloudy
11:12 PM26 °C22 °C78 %1012.2 hPa16.1 kmENE (70°)18.5 km/hScattered Clouds
11:13 PM26 °C22 °C78 %1012.2 hPa16.1 kmENE (70°)18.5 km/hMostly Cloudy
11:25 PM26 °C22 °C78 %1012.2 hPa16.1 kmENE (70°)20.4 km/hScattered Clouds
11:26 PM26 °C22 °C78 %1012.2 hPa16.1 kmENE (70°)20.4 km/hMostly Cloudy
11:29 PM26 °C22 °C78 %1011.9 hPa16.1 kmENE (60°)16.7 km/hScattered Clouds
11:55 PM25.3 °C21.9 °C81 %1011.9 hPa16.1 kmENE (70°)16.7 km/hScattered Clouds
Hourly data recorded from PGUA, located 0 kilometers away from Achang Bay, Guam







STORIES FROM OUR PARTNERS